| time (UTC) | temp F | wind direction | speed knots | gust knots | rain 1hr in | rain 24hr in | rain mn in | humidity % | barometer mb |
| 20260505171550 | 75 | 291 | 17.4 | 22.6 | 0.00 | 0.00 | 0.00 | 31 | 998.0 |
| 20260505170104 | 75 | 317 | 18.2 | 26.1 | 0.00 | 0.00 | 0.00 | 30 | 998.1 |
| 20260505164547 | 75 | 286 | 20.9 | 26.9 | 0.00 | 0.00 | 0.00 | 31 | 997.9 |
| 20260505163044 | 75 | 275 | 20.0 | 24.3 | 0.00 | 0.00 | 0.00 | 29 | 997.9 |
| 20260505161542 | 75 | 290 | 21.7 | 26.1 | 0.00 | 0.00 | 0.00 | 29 | 997.8 |
| 20260505153036 | 73 | 280 | 17.4 | 25.2 | 0.00 | 0.00 | 0.00 | 29 | 997.4 |
| 20260505151549 | 73 | 277 | 20.9 | 26.9 | 0.00 | 0.00 | 0.00 | 29 | 997.2 |
| 20260505124510 | 69 | 230 | 12.2 | 13.9 | 0.00 | 0.00 | 0.00 | 33 | 996.1 |
| 20260505123004 | 68 | 229 | 11.3 | 13.0 | 0.00 | 0.00 | 0.00 | 33 | 995.9 |
| 20260505121503 | 69 | 227 | 11.3 | 13.0 | 0.00 | 0.00 | 0.00 | 32 | 995.8 |
| 20260505120100 | 69 | 217 | 11.3 | 13.9 | 0.00 | 0.00 | 0.00 | 30 | 995.8 |
| 20260505114558 | 69 | 212 | 10.4 | 12.2 | 0.00 | 0.00 | 0.00 | 31 | 995.5 |
| 20260505113057 | 70 | 200 | 8.7 | 9.6 | 0.00 | 0.00 | 0.00 | 30 | 995.4 |
| 20260505111559 | 71 | 205 | 9.6 | 10.4 | 0.00 | 0.00 | 0.00 | 27 | 995.4 |
| 20260505101601 | 69 | 252 | 8.7 | 12.2 | 0.00 | 0.00 | 0.00 | 32 | 995.2 |
| 20260505094546 | 71 | 250 | 10.4 | 12.2 | 0.00 | 0.00 | 0.00 | 31 | 995.2 |
| 20260505093046 | 71 | 252 | 11.3 | 13.0 | 0.00 | 0.00 | 0.00 | 31 | 995.3 |
| 20260505091545 | 71 | 232 | 11.3 | 14.8 | 0.00 | 0.00 | 0.00 | 32 | 995.3 |
| 20260505090055 | 72 | 245 | 12.2 | 14.8 | 0.00 | 0.00 | 0.00 | 31 | 995.2 |
| 20260505084548 | 73 | 259 | 12.2 | 14.8 | 0.00 | 0.00 | 0.00 | 29 | 995.1 |
| 20260505083039 | 74 | 242 | 10.4 | 13.0 | 0.00 | 0.00 | 0.00 | 30 | 995.2 |
| 20260505081543 | 74 | 238 | 11.3 | 13.9 | 0.00 | 0.00 | 0.00 | 28 | 995.2 |
| 20260505080034 | 76 | 236 | 11.3 | 17.4 | 0.00 | 0.00 | 0.00 | 28 | 995.4 |
| 20260505074536 | 76 | 235 | 12.2 | 17.4 | 0.00 | 0.00 | 0.00 | 28 | 995.6 |
| 20260505073038 | 75 | 219 | 10.4 | 15.6 | 0.00 | 0.00 | 0.00 | 28 | 995.4 |
| 20260505071531 | 74 | 177 | 7.8 | 12.2 | 0.00 | 0.00 | 0.00 | 30 | 995.7 |
| 20260505070032 | 74 | 246 | 9.6 | 12.2 | 0.00 | 0.00 | 0.00 | 30 | 995.7 |
| 20260505064529 | 75 | 246 | 9.6 | 15.6 | 0.00 | 0.00 | 0.00 | 29 | 995.6 |
| 20260505063029 | 75 | 242 | 13.0 | 15.6 | 0.00 | 0.00 | 0.00 | 27 | 995.5 |
| 20260505061531 | 75 | 207 | 10.4 | 14.8 | 0.00 | 0.00 | 0.00 | 29 | 995.7 |
| 20260505060033 | 74 | 190 | 7.0 | 7.8 | 0.00 | 0.00 | 0.00 | 30 | 995.8 |
| 20260505054535 | 75 | 183 | 6.1 | 7.0 | 0.00 | 0.00 | 0.00 | 30 | 996.2 |
| 20260505053023 | 76 | 228 | 5.2 | 9.6 | 0.00 | 0.00 | 0.00 | 27 | 996.1 |
| 20260505051523 | 76 | 229 | 10.4 | 13.0 | 0.00 | 0.00 | 0.00 | 27 | 996.2 |
| 20260505041528 | 78 | 227 | 6.1 | 8.7 | 0.00 | 0.00 | 0.00 | 24 | 996.4 |
| 20260505040026 | 78 | 230 | 11.3 | 13.9 | 0.00 | 0.00 | 0.00 | 24 | 996.4 |
| 20260505034529 | 80 | 263 | 10.4 | 13.9 | 0.00 | 0.00 | 0.00 | 21 | 996.2 |
| 20260505033044 | 80 | 245 | 11.3 | 13.9 | 0.00 | 0.00 | 0.00 | 22 | 995.7 |
| 20260505031529 | 80 | 252 | 12.2 | 13.9 | 0.00 | 0.00 | 0.00 | 21 | 995.6 |
| 20260505030029 | 80 | 243 | 13.0 | 14.8 | 0.00 | 0.00 | 0.00 | 22 | 995.5 |
| 20260505024522 | 80 | 253 | 14.8 | 18.2 | 0.00 | 0.00 | 0.00 | 21 | 995.6 |
| 20260505023022 | 81 | 250 | 13.9 | 19.1 | 0.00 | 0.00 | 0.00 | 21 | 995.6 |
| 20260505021520 | 81 | 254 | 17.4 | 22.6 | 0.00 | 0.00 | 0.00 | 20 | 995.3 |
| 20260505020019 | 82 | 254 | 21.7 | 28.7 | 0.00 | 0.00 | 0.00 | 19 | 995.2 |
| 20260505014522 | 82 | 262 | 20.0 | 26.1 | 0.00 | 0.00 | 0.00 | 19 | 995.2 |
| 20260505013020 | 82 | 268 | 21.7 | 26.1 | 0.00 | 0.00 | 0.00 | 18 | 995.1 |
| 20260505011520 | 83 | 248 | 17.4 | 30.4 | 0.00 | 0.00 | 0.00 | 18 | 995.2 |
| 20260505010016 | 84 | 259 | 24.3 | 33.0 | 0.00 | 0.00 | 0.00 | 17 | 994.9 |
| 20260505004536 | 84 | 252 | 24.3 | 32.2 | 0.00 | 0.00 | 0.00 | 16 | 995.2 |
| 20260505003020 | 85 | 265 | 27.8 | 36.5 | 0.00 | 0.00 | 0.00 | 16 | 994.9 |
| 20260505001521 | 85 | 266 | 30.4 | 39.1 | 0.00 | 0.00 | 0.00 | 16 | 995.2 |
| 20260505000022 | 86 | 269 | 26.1 | 35.6 | 0.00 | 0.00 | 0.00 | 16 | 995.1 |
| 20260504234528 | 86 | 273 | 27.8 | 34.8 | 0.00 | 0.00 | 0.00 | 16 | 995.4 |
| 20260504233019 | 86 | 243 | 23.5 | 33.0 | 0.00 | 0.00 | 0.00 | 16 | 995.8 |
| 20260504231532 | 85 | 275 | 18.2 | 27.8 | 0.00 | 0.00 | 0.00 | 16 | 996.1 |
| 20260504230016 | 85 | 277 | 19.1 | 28.7 | 0.00 | 0.00 | 0.00 | 15 | 996.2 |
| 20260504224518 | 85 | 261 | 23.5 | 30.4 | 0.00 | 0.00 | 0.00 | 15 | 996.3 |
| 20260504223015 | 85 | 257 | 20.0 | 27.8 | 0.00 | 0.00 | 0.00 | 15 | 996.5 |
| 20260504221512 | 85 | 270 | 15.6 | 30.4 | 0.00 | 0.00 | 0.00 | 15 | 996.8 |
| 20260504220012 | 86 | 284 | 24.3 | 30.4 | 0.00 | 0.00 | 0.00 | 15 | 996.9 |
| 20260504214516 | 86 | 261 | 21.7 | 26.9 | 0.00 | 0.00 | 0.00 | 13 | 996.9 |
| 20260504213010 | 86 | 281 | 25.2 | 33.0 | 0.00 | 0.00 | 0.00 | 13 | 997.0 |
| 20260504211503 | 85 | 261 | 24.3 | 33.0 | 0.00 | 0.00 | 0.00 | 13 | 997.3 |
| 20260504210001 | 86 | 284 | 24.3 | 31.3 | 0.00 | 0.00 | 0.00 | 13 | 997.4 |
| 20260504204638 | 86 | 261 | 23.5 | 33.0 | 0.00 | 0.00 | 0.00 | 12 | 997.7 |
| 20260504203059 | 85 | 262 | 20.0 | 34.8 | 0.00 | 0.00 | 0.00 | 14 | 997.8 |
| 20260504201559 | 85 | 254 | 24.3 | 34.8 | 0.00 | 0.00 | 0.00 | 13 | 998.2 |
| 20260504200057 | 85 | 265 | 24.3 | 34.8 | 0.00 | 0.00 | 0.00 | 13 | 998.3 |
| 20260504194555 | 85 | 262 | 23.5 | 36.5 | 0.00 | 0.00 | 0.00 | 15 | 998.6 |
| 20260504193049 | 84 | 277 | 25.2 | 31.3 | 0.00 | 0.00 | 0.00 | 16 | 999.0 |
| 20260504191544 | 83 | 270 | 16.5 | 29.5 | 0.00 | 0.00 | 0.00 | 17 | 999.2 |
| 20260504190047 | 82 | 242 | 19.1 | 30.4 | 0.00 | 0.00 | 0.00 | 21 | 999.4 |
| 20260504184539 | 82 | 273 | 20.0 | 32.2 | 0.00 | 0.00 | 0.00 | 24 | 999.7 |
| 20260504183034 | 81 | 265 | 22.6 | 28.7 | 0.00 | 0.00 | 0.00 | 26 | 999.9 |
| 20260504181551 | 80 | 267 | 20.0 | 25.2 | 0.00 | 0.00 | 0.00 | 26 | 1000.2 |
| 20260504180049 | 79 | 252 | 16.5 | 24.3 | 0.00 | 0.00 | 0.00 | 27 | 1000.5 |
| 20260504174551 | 79 | 279 | 20.0 | 26.1 | 0.00 | 0.00 | 0.00 | 25 | 1000.9 |
| 20260504173046 | 79 | 286 | 17.4 | 26.1 | 0.00 | 0.00 | 0.00 | 28 | 1000.9 |